Probability
1 1 0 0 0 0 0 0 1 2 2 1 0 0 0 0 0 0 0 0 1 1 2 2 1 0 0 0 0 0 0 0 0 0 0 0 0 0 0 0 0 0 0
1 0 0 0 0 0 0 0 0 1 1 0 0 0 0 0 0 0 0 0 1 2 2 1 1 1 1 1 0 1 1 0 0 0 0 0 0 0 0 0 0 0 0
2 1 0 0 0 0 0 0 0 0 0 0 0 0 0 0 0 0 0 1 2 2 2 2 2 2 2 1 1 1 1 0 0 0 0 0 0 0 0 0 0 0 0
2 1 0 1 2 1 1 0 0 0 0 0 0 0 0 1 1 0 0 1 2 2 2 3 3 3 3 2 1 1 1 0 0 1 1 1 0 0 0 0 0 0 0
2 1 1 2 3 3 2 1 0 0 0 0 0 0 1 2 2 1 0 1 1 1 2 4 6 6 5 4 4 3 2 2 2 4 3 2 0 0 0 0 0 0 0
7 5 3 2 2 3 3 2 1 1 1 1 0 0 1 2 3 1 0 0 1 1 1 4 6 7 7 7 7 7 7 6 6 6 5 3 2 1 0 0 0 0 0
14 11 7 5 4 4 5 5 4 3 2 2 1 0 1 2 3 2 1 0 0 0 1 3 6 8 8 7 7 8 9 9 8 7 6 6 5 3 2 0 0 0 0
17 14 11 9 7 8 9 8 7 5 4 3 2 1 1 1 2 2 2 1 0 1 2 3 7 10 9 7 6 6 7 7 8 8 8 8 7 6 4 2 0 0 0
18 16 15 13 12 12 11 10 10 7 4 4 4 3 2 2 2 3 2 1 1 2 3 4 7 10 10 8 7 6 6 6 7 9 10 9 7 6 5 4 1 0 0
22 20 18 17 16 14 12 11 11 9 5 4 4 4 3 2 3 3 1 1 2 2 2 2 5 8 10 9 9 10 9 7 8 10 11 10 8 5 4 3 2 0 0
25 23 21 20 20 17 15 13 12 12 9 7 5 5 4 4 3 3 1 1 1 1 1 1 3 6 9 10 10 11 11 9 8 9 10 9 8 6 4 2 1 0 0
25 25 23 23 24 22 20 18 17 16 14 11 9 8 6 5 4 3 2 1 1 1 2 2 2 4 7 9 8 8 9 9 6 6 7 6 6 5 3 1 0 0 0
24 25 25 25 26 25 25 24 22 20 17 16 14 13 11 7 5 4 3 2 1 1 3 5 5 4 5 7 6 6 8 7 4 3 3 2 2 3 3 1 0 0 0
21 24 25 25 26 25 25 25 23 20 19 18 18 18 16 11 7 6 5 4 2 1 2 6 9 8 7 7 6 7 9 7 3 1 1 0 1 2 2 1 0 0 0
17 21 23 24 25 24 23 24 21 18 17 18 19 20 19 15 13 11 8 6 5 4 2 4 9 12 12 10 7 8 10 8 3 1 0 0 0 1 1 0 0 0 0
17 20 22 23 24 23 22 21 19 17 17 18 19 20 19 19 19 17 13 11 11 8 5 4 8 14 16 13 9 10 11 8 4 2 0 0 0 0 0 0 0 0 0
25 24 24 24 23 22 20 20 18 18 18 17 17 19 19 20 21 20 19 19 18 16 11 8 8 14 18 17 14 13 12 8 5 2 0 0 0 0 0 0 0 0 0
32 28 24 23 21 19 19 19 19 19 18 17 18 19 20 21 22 21 22 25 25 23 18 13 11 14 18 18 17 15 12 9 6 3 1 0 0 0 0 0 0 0 0
33 28 22 20 18 16 16 16 16 17 18 18 19 20 21 23 24 23 23 26 27 25 22 18 14 14 15 17 16 14 11 9 7 5 2 1 0 0 0 0 0 0 0
33 29 23 19 17 15 14 12 12 14 17 18 20 22 23 24 25 24 22 23 23 23 23 21 18 16 16 17 16 13 11 9 7 5 5 3 1 0 0 0 0 0 0
35 34 28 23 20 16 14 12 12 14 16 19 22 25 25 23 21 19 18 18 20 23 24 21 20 19 19 20 19 16 12 9 6 5 6 5 3 1 0 0 0 0 0
38 36 32 29 25 19 13 13 15 16 18 20 22 24 23 19 17 16 15 13 15 20 20 18 19 20 21 23 22 18 15 11 6 5 6 6 4 2 0 0 0 0 0
40 38 35 32 28 19 13 11 14 17 20 21 21 22 21 18 17 19 16 12 12 13 14 14 17 18 20 23 23 20 17 14 9 7 7 6 3 1 0 0 0 0 0
43 42 39 35 28 18 11 9 12 17 21 21 22 24 25 22 17 18 18 15 14 13 9 9 12 14 14 18 21 19 18 15 11 8 6 5 2 0 0 0 0 0 0
42 41 38 35 28 19 12 8 10 18 24 25 25 25 27 24 16 13 15 17 18 15 10 7 7 7 6 8 13 16 16 15 12 8 6 5 2 0 0 0 0 0 0
38 37 35 32 28 22 14 9 10 18 25 29 29 26 24 22 16 11 12 17 18 15 11 7 5 2 1 2 6 12 16 15 12 9 8 7 3 1 0 0 0 0 0
Wind_Speed
2 2 2 2 2 3 3 2 2 2 1 1 0 1 1 1 3 4 5 11 11 10 10 10 9 9 9 9 9 9 10 9 9 8 8 8 7 7 7 7 7 6 6
3 3 2 1 1 2 2 2 2 2 1 1 1 0 1 1 3 3 5 7 10 10 9 9 9 9 9 9 10 10 10 10 10 9 9 8 8 8 8 7 7 7 6
3 2 2 2 2 2 2 1 2 2 2 2 2 1 1 1 2 2 4 4 5 8 9 9 8 8 8 8 8 8 8 9 9 10 10 9 9 9 8 8 7 7 7
2 2 2 2 2 2 2 2 1 2 2 1 1 1 1 1 1 2 2 3 4 4 7 9 8 8 7 7 7 7 7 8 9 9 9 9 9 9 9 9 9 8 8
2 1 1 2 1 1 1 1 2 1 2 1 1 2 1 2 1 1 2 3 3 4 4 8 9 8 7 7 6 7 6 6 7 7 8 8 8 9 10 10 10 9 9
3 2 2 2 1 1 1 1 2 1 1 1 1 1 1 2 2 2 2 2 3 4 4 5 6 5 7 6 6 6 6 6 6 6 7 7 7 7 7 8 9 10 10
3 3 2 2 1 1 1 2 1 1 1 1 1 0 0 1 2 2 2 2 2 3 4 4 4 4 4 6 5 5 6 6 6 6 6 6 6 6 6 6 6 7 9
4 4 3 2 2 2 2 2 2 2 2 2 2 1 1 1 1 3 2 2 2 2 3 5 5 5 4 3 4 6 6 6 7 7 7 6 6 6 6 7 6 7 7
4 2 3 3 2 3 3 3 3 3 2 2 2 2 2 2 1 1 2 2 2 2 2 3 4 5 5 4 4 6 7 7 7 7 6 6 6 5 6 7 7 6 6
4 3 3 3 3 2 2 4 3 3 3 3 2 3 2 1 1 1 1 2 3 3 2 3 3 4 4 4 4 6 7 7 7 7 7 7 6 6 6 6 7 7 6
4 3 3 3 3 2 3 3 2 3 3 3 3 2 3 2 3 2 2 2 2 2 3 2 2 3 4 4 4 5 8 7 6 6 6 6 6 6 6 6 6 6 7
3 4 4 3 3 3 2 2 3 3 3 3 3 2 2 2 3 2 3 3 3 2 3 3 2 3 3 4 5 6 8 8 7 6 5 5 5 5 6 6 6 5 5
3 4 4 3 3 2 3 3 3 3 3 3 3 3 3 3 2 2 2 2 2 2 3 3 4 3 3 3 4 8 8 7 6 5 5 4 5 5 5 5 5 4 4
2 3 3 3 3 3 3 3 3 3 3 4 4 4 3 3 3 3 3 2 2 2 2 3 3 4 3 3 4 6 5 8 7 6 5 4 4 4 3 4 4 3 2
2 3 3 3 3 3 3 3 2 3 3 4 4 4 4 3 3 3 2 3 3 2 2 3 2 4 4 4 6 4 4 7 8 7 6 5 4 4 4 4 3 3 2
1 2 3 3 3 3 4 3 3 3 3 3 3 3 4 3 3 3 3 2 2 2 2 2 2 3 4 4 7 4 4 8 8 8 7 6 6 5 4 4 4 3 3
2 2 2 3 3 4 4 3 4 4 4 3 4 4 4 4 3 3 2 2 2 2 2 2 1 2 3 3 4 4 4 5 5 9 9 8 7 6 5 5 4 4 3
2 2 2 2 3 4 4 4 5 4 4 4 4 4 4 4 4 3 3 3 2 2 2 3 2 2 3 4 4 5 4 5 4 8 10 9 8 7 6 5 5 4 4
3 3 2 3 3 3 3 3 3 3 3 4 4 4 4 4 4 3 4 3 2 3 3 3 3 2 3 3 3 4 3 2 3 6 9 8 8 8 7 6 5 5 4
3 3 3 3 3 3 3 3 4 4 4 4 4 4 4 4 4 4 4 3 3 3 3 3 3 3 3 3 3 3 2 2 3 3 4 6 7 8 7 6 6 6 5
4 3 3 3 4 4 4 4 4 4 4 4 4 3 3 3 3 2 3 2 2 3 3 3 4 3 3 3 3 3 3 2 2 3 3 4 4 4 4 6 7 7 7
4 3 3 3 4 4 3 4 4 3 3 4 4 3 3 4 3 3 3 2 2 3 3 3 3 3 3 3 2 3 2 2 3 3 3 4 5 5 4 4 6 9 9
3 3 3 4 4 3 3 3 3 3 4 4 4 3 4 3 3 3 3 4 3 4 5 4 4 4 3 2 3 3 3 3 3 3 3 3 3 4 4 5 9 10 10
3 3 4 4 3 3 3 3 3 4 4 4 4 3 3 2 2 2 2 3 3 3 4 4 3 3 2 1 2 3 4 4 3 2 3 3 3 3 3 3 9 10 10
3 3 3 3 3 3 3 3 3 3 4 5 5 4 4 3 3 3 3 3 4 3 2 2 3 3 2 3 3 2 3 3 3 3 3 3 2 2 2 3 6 10 10
3 3 3 3 3 3 4 4 4 4 4 4 4 3 4 4 4 4 4 5 5 5 3 3 3 4 5 5 6 5 4 3 2 2 3 3 2 2 2 3 4 5 5
Wind_Direction
134 130 134 151 162 143 150 160 176 149 127 97 92 113 99 93 119 122 142 162 164 170 177 180 185 189 192 194 196 197 197 196 195 193 194 196 197 197 197 196 200 202 206
133 141 141 141 136 135 143 156 159 141 141 126 117 117 126 130 120 140 148 167 175 178 183 186 190 195 197 199 201 205 205 203 202 202 201 203 204 204 205 207 210 210 211
126 135 140 160 160 145 135 151 151 150 163 163 160 172 152 155 139 148 150 159 170 181 180 182 186 190 193 196 199 202 204 205 207 207 207 208 208 210 210 210 213 215 215
138 160 156 154 151 159 156 170 181 160 142 150 164 172 142 142 156 165 161 158 160 171 182 181 182 186 189 195 202 203 205 206 208 207 208 210 209 209 209 212 217 219 219
147 172 138 125 174 172 152 187 133 142 144 164 179 173 168 166 170 195 176 160 157 162 167 179 181 183 187 191 197 202 202 202 202 204 207 213 216 215 215 218 221 222 222
167 177 170 173 205 150 137 127 112 132 166 183 209 164 181 186 180 186 194 176 164 168 164 169 177 181 182 184 189 193 196 192 193 198 204 210 217 218 216 220 223 222 222
170 172 183 163 187 167 170 178 156 176 192 171 145 154 251 205 187 180 193 177 181 171 161 162 168 172 177 190 200 199 198 200 198 201 204 207 212 214 211 217 220 219 221
185 189 186 196 190 190 198 189 184 206 210 179 169 170 196 209 232 209 189 190 193 185 176 177 169 170 174 171 183 197 204 208 209 211 214 214 216 216 215 218 222 221 225
194 203 185 205 206 207 200 199 204 206 216 213 198 193 196 202 188 197 204 192 190 191 188 175 174 174 179 167 174 194 200 206 210 213 213 214 213 214 215 218 221 221 225
192 197 193 204 227 221 214 214 201 212 216 229 220 217 213 204 182 191 205 192 194 193 197 204 185 177 178 169 164 170 189 198 210 217 217 219 219 220 221 225 227 225 226
195 198 198 197 213 220 226 221 213 219 223 226 228 216 213 223 219 200 209 196 193 195 192 197 180 171 177 174 174 171 178 189 201 211 214 216 220 219 218 224 228 229 230
200 199 197 199 209 214 224 223 223 215 224 234 240 231 208 214 211 203 209 208 199 201 197 197 189 179 176 170 177 168 169 182 193 204 210 212 213 213 218 221 224 228 228
192 199 198 196 205 209 217 216 227 227 224 231 238 241 233 231 222 208 205 216 210 199 195 193 186 177 176 163 163 162 169 173 178 186 192 198 201 207 213 211 214 217 219
186 175 190 202 204 214 222 215 225 229 228 233 241 243 243 241 229 218 204 197 222 224 199 202 173 168 173 155 148 165 167 172 175 179 184 188 191 192 193 187 192 199 199
187 180 195 209 213 223 237 228 233 238 234 229 235 237 238 238 228 230 224 206 201 219 228 203 181 169 161 143 155 172 162 173 177 178 182 184 182 181 180 178 176 172 167
187 191 201 209 217 227 235 232 240 236 235 240 241 249 244 246 231 225 233 233 213 206 233 205 191 167 160 162 164 177 173 169 178 179 183 184 182 180 177 172 169 167 163
186 202 214 220 222 229 236 236 241 241 239 249 253 249 245 252 251 242 237 230 224 209 222 230 190 156 160 168 163 186 179 178 179 187 187 184 182 179 175 174 176 174 173
195 207 211 227 238 235 231 235 243 246 239 243 251 254 250 243 238 247 244 235 227 215 207 226 220 191 195 188 181 197 203 191 179 186 188 183 181 179 178 180 181 181 182
202 218 217 230 245 245 238 239 243 250 249 249 246 248 248 243 240 241 240 238 230 226 204 215 227 211 204 196 189 209 208 191 196 176 180 182 181 180 179 178 180 179 183
204 214 226 232 240 246 248 253 247 247 246 250 251 248 248 244 240 238 237 231 234 235 222 221 230 220 198 191 189 202 200 204 212 188 172 174 181 182 182 182 184 184 188
211 212 223 235 240 242 243 249 251 244 245 249 249 240 234 231 234 236 243 238 233 234 233 229 228 223 207 190 203 203 205 201 213 193 174 180 176 184 191 195 198 194 189
213 215 220 231 242 247 243 236 244 252 251 251 246 236 229 218 206 200 202 215 226 233 242 245 241 225 214 203 200 208 203 206 222 194 195 207 184 189 192 192 193 190 189
218 227 228 229 237 242 230 232 244 247 251 251 248 242 247 236 204 197 198 205 219 232 234 245 253 249 235 213 204 218 222 223 229 203 194 220 194 196 193 189 182 186 192
228 235 236 233 235 243 227 228 247 246 251 251 246 244 244 246 235 209 218 232 231 236 237 232 241 263 264 241 214 221 226 230 239 210 179 213 201 204 186 177 184 186 191
241 242 241 239 232 235 235 233 234 251 247 249 246 242 228 219 204 203 217 236 241 239 237 204 202 214 224 230 221 224 229 224 228 213 197 210 195 193 190 192 189 188 188
247 253 245 243 231 221 222 224 229 251 252 252 251 243 227 202 188 201 224 229 238 238 225 223 226 229 229 226 220 217 226 228 236 214 190 195 198 183 205 194 181 184 192